Content
SEND FEEDBACK

Daily
Averages
Monthly
Summary
Australia

TERREY HILLS, NEW SOUTH WALES


Home > Oceania > Australia > New South Wales
Elevation: 131 feet     Latitude: 33 49S     Longitude: 151 09E

WEATHER
 
SELECT A DAY
Number of Records: 304,043;   Date Range: 7/1/96 - 9/30/14
 
SHARE

PRINT THIS DATA

[ ← Previous Day ]
WEATHER ALMANAC - JANUARY 23, 2013
[ Next Day → ]
[ °C ]   °F
Weather ElementAverageHighLow
Temperature71 °F73.4 °F (12:45 pm)69.8 °F (12:30 am)
Dewpoint64.2 °F68 °F (12:00 am)62.6 °F (8:00 am)
Humidity77.8 %94 % (12:30 am)62 % (2:00 pm)
Barometer29.97 in30.06 in (11:00 pm)29.86 in (12:00 am)
Wind Speed22.7 mph31.1 mph (1:30 am)
Wind Gust34.5 mph (12:45 pm)
Weather ElementAverage
Visibility6.7 mi
Wind DirectionSSW (188.7 °)

Weather ElementTotal
Precipitation---
Cooling Degree Days6.6 (Base 65)
Growing Degree Days21.6 (Base 50)
Averaged from 63 records on January 23, 2013
WEATHER CONDITIONS BREAKOUT
WIND DIRECTION BREAKOUT
WEATHER BY HOUR - JANUARY 23, 2013
[ °C ]   °F
Local TimeTemperatureDewpointHumidityBarometerVisibilityWind DirectionWind SpeedGust SpeedPrecipitationEventsConditions
12:00 AM71.6 °F68.0 °F88 %29.86 in5.0 miSouth (190°)29.9 mphMostly Cloudy
12:30 AM69.8 °F68.0 °F94 %29.86 in5.0 miSouth (190°)28.8 mphMostly Cloudy
1:00 AM69.8 °F66.2 °F88 %29.86 in5.0 miSouth (190°)29.9 mphMostly Cloudy
1:30 AM69.8 °F66.2 °F88 %29.86 in5.0 miSouth (190°)31.1 mphMostly Cloudy
2:00 AM70.0 °F67.0 °F85 %29.89 inSouth (190°)26.5 mph
2:00 AM69.8 °F66.2 °F88 %29.86 in5.6 miSouth (190°)26.5 mphMostly Cloudy
2:30 AM69.8 °F66.2 °F88 %29.89 in5.6 miSouth (190°)24.2 mphMostly Cloudy
3:00 AM69.8 °F66.2 °F88 %29.86 in5.6 miSouth (190°)25.3 mphMostly Cloudy
3:00 AM70.0 °F66.0 °F83 %29.88 in6.0 miSouth (190°)25.3 mphHaze
3:30 AM69.8 °F66.2 °F88 %29.89 in5.6 miSouth (190°)26.5 mphMostly Cloudy
4:00 AM69.8 °F66.2 °F88 %29.89 in5.6 miSouth (190°)25.3 mphMostly Cloudy
4:30 AM69.8 °F64.4 °F83 %29.89 in5.6 miSSW (200°)23.0 mphMostly Cloudy
5:00 AM70.0 °F65.0 °F79 %29.89 inSSW (200°)24.2 mph
5:00 AM69.8 °F64.4 °F83 %29.89 in5.6 miSSW (200°)24.2 mphMostly Cloudy
5:30 AM69.8 °F64.4 °F83 %29.89 in5.6 miSSW (200°)23.0 mphMostly Cloudy
6:00 AM69.8 °F64.4 °F83 %29.92 in6.2 miSSW (200°)21.9 mphMostly Cloudy
6:00 AM70.0 °F64.0 °F77 %29.92 in7.0 miSSW (200°)21.9 mphHaze
6:30 AM69.8 °F64.4 °F83 %29.92 in6.2 miSSW (210°)17.3 mphMostly Cloudy
6:54 AM69.8 °F64.4 °F83 %29.95 in6.2 miSSW (200°)19.6 mphMostly Cloudy
7:00 AM69.8 °F64.4 °F83 %29.95 in6.2 miSSW (200°)18.4 mphMostly Cloudy
7:30 AM69.8 °F64.4 °F83 %29.95 in6.2 miSSW (200°)18.4 mphMostly Cloudy
8:00 AM70.0 °F63.0 °F72 %29.98 inSSW (200°)20.7 mph
8:00 AM69.8 °F62.6 °F78 %29.98 in6.2 miSSW (200°)20.7 mphMostly Cloudy
8:30 AM69.8 °F64.4 °F83 %29.98 in6.2 miSSW (200°)20.7 mphMostly Cloudy
9:00 AM69.8 °F64.4 °F83 %29.98 in6.2 miSSW (200°)19.6 mphMostly Cloudy
9:00 AM71.0 °F64.0 °F74 %29.99 in11.0 miSSW (200°)19.6 mphHaze
10:00 AM69.8 °F62.6 °F78 %29.98 in6.2 miSouth (190°)21.9 mphMostly Cloudy
10:30 AM71.6 °F62.6 °F73 %29.98 in6.2 miSouth (190°)24.2 mphMostly Cloudy
11:00 AM71.0 °F64.0 °F72 %30.01 inSouth (190°)23.0 mph
11:00 AM69.8 °F64.4 °F83 %30.01 in6.2 miSouth (190°)23.0 mphMostly Cloudy
11:30 AM71.6 °F62.6 °F73 %30.01 in6.2 miSouth (190°)25.3 mphMostly Cloudy
12:00 PM71.6 °F62.6 °F73 %30.01 in6.2 miSouth (190°)24.2 mphMostly Cloudy
12:00 PM72.0 °F63.0 °F67 %30.01 in12.0 miSouth (190°)24.2 mphHaze
12:45 PM73.4 °F62.6 °F69 %29.98 in6.2 miSouth (190°)23.0 mph34.5 mphMostly Cloudy
1:00 PM73.4 °F62.6 °F69 %29.98 in6.2 miSouth (180°)23.0 mphMostly Cloudy
1:30 PM73.4 °F64.4 °F73 %29.98 in6.2 miSouth (190°)25.3 mphMostly Cloudy
2:00 PM73.0 °F63.0 °F62 %30.00 inSouth (180°)26.5 mph
2:00 PM73.4 °F62.6 °F69 %29.98 in6.2 miSouth (180°)26.5 mphMostly Cloudy
2:30 PM71.6 °F62.6 °F73 %29.98 in6.2 miSouth (180°)24.2 mphMostly Cloudy
3:00 PM73.4 °F62.6 °F69 %29.98 in6.2 miSouth (180°)24.2 mphMostly Cloudy
3:00 PM72.0 °F63.0 °F66 %29.99 in16.0 miSouth (180°)24.2 mphPartly Cloudy
3:30 PM71.6 °F62.6 °F73 %29.98 in6.2 miSouth (180°)25.3 mphMostly Cloudy
4:00 PM73.4 °F64.4 °F73 %29.98 in6.2 miSouth (190°)23.0 mphMostly Cloudy
4:30 PM71.6 °F62.6 °F73 %29.98 in6.2 miSouth (180°)24.2 mphMostly Cloudy
5:00 PM72.0 °F64.0 °F69 %29.99 inSouth (180°)21.9 mph
5:00 PM71.6 °F64.4 °F78 %29.98 in6.2 miSouth (180°)21.9 mphMostly Cloudy
5:30 PM71.6 °F64.4 °F78 %29.98 in6.2 miSouth (180°)21.9 mphMostly Cloudy
6:00 PM71.6 °F64.4 °F78 %29.98 in6.2 miSouth (190°)20.7 mphMostly Cloudy
6:00 PM71.0 °F64.0 °F73 %29.99 in14.0 miSouth (190°)20.7 mphHaze
6:30 PM71.6 °F64.4 °F78 %29.98 in6.2 miSouth (190°)20.7 mphMostly Cloudy
7:00 PM71.6 °F64.4 °F78 %30.01 in6.2 miSouth (190°)19.6 mphMostly Cloudy
7:30 PM71.6 °F64.4 °F78 %30.01 in6.2 miSouth (170°)20.7 mphMostly Cloudy
8:00 PM71.0 °F63.0 °F70 %30.04 inSouth (180°)21.9 mph
8:00 PM71.6 °F62.6 °F73 %30.01 in6.2 miSouth (180°)21.9 mphMostly Cloudy
8:30 PM71.6 °F64.4 °F78 %30.04 in6.2 miSouth (170°)20.7 mphMostly Cloudy
9:00 PM71.6 °F64.4 °F78 %30.04 in6.2 miSouth (170°)19.6 mphMostly Cloudy
9:00 PM72.0 °F65.0 °F72 %30.04 in14.0 miSouth (170°)19.6 mphHaze
9:30 PM71.6 °F62.6 °F73 %30.04 in6.2 miSouth (180°)20.7 mphMostly Cloudy
10:00 PM71.6 °F64.4 °F78 %30.04 in6.2 miSouth (180°)18.4 mphMostly Cloudy
10:30 PM71.6 °F64.4 °F78 %30.04 in6.2 miSouth (190°)18.4 mphMostly Cloudy
11:00 PM71.0 °F63.0 °F70 %30.06 inSouth (190°)17.3 mph
11:00 PM71.6 °F62.6 °F73 %30.04 in6.2 miSouth (190°)17.3 mphMostly Cloudy
11:30 PM69.8 °F64.4 °F83 %30.04 in6.2 miSouth (180°)20.7 mphMostly Cloudy
Hourly data recorded from YSSY, located miles away from Terrey Hills, New South Wales







STORIES FROM OUR PARTNERS